Regional Weather Roundup
Issued by NWS

Home | Current Version | Previous Version | Text Only | Print | Product List | Glossary On
Versions: 1 2 3 4 5 6 7 8 9 10 11 12 13 14 15 16 17 18 19 20 21 22 23 24 25 26 27 28 29 30 31 32 33 34 35 36 37 38 39 40 41 42 43 44 45 46 47 48 49 50
000
ASUS44 KJAN 120310
RWRMS

MISSISSIPPI HOURLY WEATHER ROUNDUP
NATIONAL WEATHER SERVICE JACKSON MS
900 PM CST MON DEC 11 2017

NOTE: "FAIR: INDICATES FEW OR NO CLOUDS BELOW 12,000 FEET WITH NO
SIGNIFICANT WEATHER AND/OR OBSTRUCTIONS TO VISIBILITY.

MSZ001>002-007>008-010>013-018>021-025>028-034>036-120400-
NORTHWEST MISSISSIPPI

CITY           SKY/WX    TMP DP  RH WIND       PRES   REMARKS
BATESVILLE     FAIR      56  33  41 SW9       29.97S
CLARKSDALE     CLEAR     52  37  58 SW7       29.97S
CLEVELAND      FAIR      49  37  64 SW7       29.97F
GREENWOOD      CLEAR     50  36  58 SW8       29.99F
GREENVILLE     CLEAR     55  34  45 SW12      29.98F
OXFORD         FAIR      52  32  46 VRB7G13   29.96F
TUNICA           N/A    N/A N/A N/A N9G22     30.00R
WINONA         FAIR      40  33  76 CALM      29.99S
$$

MSZ003>006-009-014>017-022>024-029>033-037>039-120400-
NORTHEAST MISSISSIPPI

CITY           SKY/WX    TMP DP  RH WIND       PRES   REMARKS
ABERDEEN       FAIR      46  37  71 S6        29.98S
COLUMBUS AFB   CLEAR     52  36  54 SW8       29.97F
CORINTH        FAIR      54  32  43 SW8G16    29.93R
STARKVILLE     FAIR      52  32  46 SW5       29.99F
TUPELO         CLEAR     52  29  41 S6        29.96R
$$

MSZ040-058-120400-
CENTRAL MISSISSIPPI

CITY           SKY/WX    TMP DP  RH WIND       PRES   REMARKS
JACKSON INTL   CLEAR     52  36  54 SW8       30.04S
JACKSON HAWKNS CLEAR     56  38  50 SW13      30.05S
MADISON        FAIR      52  34  50 SW7       30.04S
MERIDIAN KEY   CLEAR     44  39  82 SW9       30.04F
MERIDIAN NAS   CLEAR     53  37  54 SW5       30.03F
RAYMOND        FAIR      54  36  50 SW5       30.05S
VICKSBURG VKS  CLEAR     55  39  54 SW8       30.07S
$$

MSZ059>079-120400-
SOUTH MISSISSIPPI

CITY           SKY/WX    TMP DP  RH WIND       PRES   REMARKS
HATTIESBURG    CLEAR     54  41  61 SW3       30.10S
LAUREL         FAIR      51  36  56 S3        30.08F
MCCOMB         CLEAR     53  38  56 SW6       30.10F
NATCHEZ        CLEAR     57  41  55 SW8       30.10F
PINE BELT      CLEAR     44  39  82 CALM      30.09F
$$

MSZ080>082-120400-
COASTAL MISSISSIPPI

CITY           SKY/WX    TMP DP  RH WIND       PRES   REMARKS
BAY ST LOUIS   CLEAR     48  45  87 SW6       30.14R
BILOXI         CLEAR     54  47  79 W14       30.12S
PASCAGOULA     CLEAR     52  45  77 VRB6      30.12F
GULFPORT       CLEAR     54  47  77 W7        30.12S
$$

LAZ007>009-015>016-023>026-120400-
NORTHEAST LOUISIANA

CITY           SKY/WX    TMP DP  RH WIND       PRES   REMARKS
BASTROP        FAIR      57  35  42 SW9       30.04S
TALLULAH/VBURG CLEAR     57  41  55 VRB5      30.06S
VIDALIA          N/A    N/A N/A N/A MISG      30.10S
$$



USA.gov is the U.S. government's official web portal to all federal, state and local government web resources and services.